Location: Katowice
(50.2611°N, 19.0242°E)
Time: 19:41:58
(UTC+02:00)

Explorer 7 - Pass Details

Date: 30 August 2019
Orbit: 485 x 680 km, 50.3° (Epoch: 14 October)

Event Time Altitude Azimuth Distance (km) Brightness Sun altitude
Rises 10:27:36 0° 272° (W) 3,017 10.2 40.0°
Reaches altitude 10° 10:30:00 10° 272° (W) 2,088 9.5 40.3°
Maximum altitude 10:34:51 89° 360° (N) 651 7.9 40.8°
Drops below altitude 10° 10:39:28 10° 93° (E) 1,988 10.3 41.3°
Sets 10:41:42 0° 94° (E) 2,861 11.0 41.6°
